Hauptseite
METAR-TAF:

METAR-TAF

Flughäfen :

Vlissingen, Niederlande

Breite: 51-27N, Länge: 3-36E, Höhe: 10 m

Beobachtung

Neuester Wetterbericht von vor 15 Minuten, um 12:25 UTC
Wind 19 kt aus Süd
Temperatur 15°C
Luftfeuchtigkeit 67%
Luftdruck 1002 hPa
Sichtweite 10 km oder mehr

METAR: EHFS 251225Z AUTO 17019KT 9999 SCT032/// BKN039/// BKN043/// 15/09 Q1002 W///H///

Zeit: 14:40 (12:40 UTC)


TAF: fehlend

Wetterbeobachtungen und Prognosen von mehr als 4000 Flughäfen (METAR und TAF Bericht).

Die verfügbaren Stationen werden durch gelbe und rote Markierungen auf der Karte dargestellt.

Führen Sie die Maus auf sie, um den Namen der Station zu sehen.

Darauf klicken, um die Beobachtung von Wetterbeobachtungen und Prognosen zu sehen.

Um die Karte zu ändern : klicken Sie auf den grünen Tasten mit einem schwarzen Kreuz Zum Vergrößern, auf den grünen Button mit einem Gedankenstrich zu verkleinern, oder auf die grünen Pfeile für benachbarte Karten.


METAR-TAF: